User: anonymous   Login
Location: Mentone
(34.5413°N, 85.5351°W)
Time: 22:54:53
(UTC-06:00)
Language:

ADEOS Rocket - Orbit

View from above orbital plane
View from above orbital plane
View from above satellite
View from above satellite

Ground track
Ground track

The orbit data is extracted from the following two-line orbital elements,

1 24279U 96046C   14354.81718456  .00000030  00000-0  79981-4 0  7737
2 24279 098.7223 039.0265 0301079 089.1705 037.6406 13.47007182901810
Epoch (UTC): 20 December 2014 19:36:44
Eccentricity: 0.0301079
inclination: 98.7223°
perigee height: 858 km
apogee height: 1308 km
right ascension of ascending node: 39.0265°
argument of perigee: 89.1705°
revolutions per day: 13.47007182
mean anomaly at epoch: 37.6406°
orbit number at epoch: 90181

The dashed part of the orbit path shows where the satellite is in the earth's shadow,  

DLR